Location: Madrid
(40.4167°N, 3.7036°W)
Time: 13:28:04
(UTC+00:00)

ISS - Pass Details

Date: 15 July 2024
Orbit: 410 x 424 km, 51.6° (Epoch: 14 July)

Event Time Altitude Azimuth Distance (km) Brightness Sun altitude
Rises 23:24:57 0° 312° (NW) 2,343 0.9 -26.9°
Reaches altitude 10° 23:27:34 10° 334° (NNW) 1,481 0.0 -27.0°
Maximum altitude 23:29:50 17° 17° (NNE) 1,134 -1.0 -27.1°
Enters shadow 23:30:10 17° 25° (NNE) 1,144 -1.0 -27.1°
